Weather in Listopadovka

Russia / Voronezh Oblast     51°24′43″N   41°26′30″E
temp.,
°C
wind,
m/s
gust,
m/s
humid.,
%
clouds,
%
prec.,
mm/h
press.,
hPa
HPBL,
m
21 january, fri
fri2100:00−15s5139661 0.0 1017202
03:00−14sse51296100 0.0 1015205
06:00−12sse71694100 0.0 1012304
09:00−8sse81994100 0.4 1010496
12:00−6sse91895100 2.3 1008673
15:00−3s81593100 3.3 1007685
18:00−2s71597100 0.8 1006725
21:00−4sw6139010 1.9 1008432
22 january, sat
sat2200:00−9ssw411955 0.0 1010171
03:00−10ssw4119510 0.0 1010176
06:00−12s4109644 0.0 1011157
09:00−12s4109758 0.0 1013148
12:00−7s499477 0.0 1014288
15:00−6s48938 0.0 1014304
18:00−11sse369762 0.0 101672
21:00−14s3310086 0.0 101838
23 january, sun
sun2300:00−17sse22100100 0.0 101916
03:00−17se22100100 0.0 102015
06:00−13ese2299100 0.0 102134
09:00−10e2499100 0.0 102378
12:00−5ene4694100 0.0 1023237
15:00−4ne51193100 0.1 1023384
18:00−3ne71496100 1.7 1023604
21:00−3e71496100 3.3 1023599
24 january, mon
mon2400:00−4e71391100 0.2 1025483
03:00−7e61290100 0.2 1026385
06:00−9ene61292100 0.0 1026318
09:00−9e51192100 0.0 1028317
12:00−7e51091100 0.0 1028428
15:00−6e5109198 0.0 1027434
18:00−7e51192100 0.0 1028318
21:00−9e51192100 0.0 1028260
25 january, tue
tue2500:00−10e51193100 0.0 1028249
03:00−10ese41094100 0.0 1027217
06:00−11ese41095100 0.0 1027197
09:00−10ese41094100 0.0 1027253
12:00−8se51093100 0.0 1027312
15:00−6se4109486 0.1 1026334
18:00−9se4109580 0.1 1026242
21:00−9se4109572 0.3 1026240